Time,TemperatureF,DewpointF,PressureIn,WindDirection,WindDirectionDegrees,WindSpeedMPH,WindSpeedGustMPH,Humidity,HourlyPrecipIn,Conditions,Clouds,dailyrainin,SolarRadiationWatts/m^2,SoftwareType,DateUTC
2013-03-20 00:04:00,49.5,49.2,30.12,North,0,0.0,0.0,99,0.00,,,0.00,0,Wunderground v.1.15,2013-03-20 07:04:00,
2013-03-20 00:09:00,49.4,49.4,30.12,North,0,0.0,0.0,100,0.00,,,0.00,0,Wunderground v.1.15,2013-03-20 07:09:00,
2013-03-20 00:19:00,49.5,49.5,30.11,North,0,0.0,0.0,100,0.00,,,0.00,0,Wunderground v.1.15,2013-03-20 07:19:00,
2013-03-20 00:25:00,49.4,49.4,30.12,West,272,0.0,0.0,100,0.00,,,0.00,0,Wunderground v.1.15,2013-03-20 07:25:00,
2013-03-20 00:34:00,49.4,49.4,30.11,West,272,0.0,1.0,100,0.00,,,0.00,0,Wunderground v.1.15,2013-03-20 07:34:00,
2013-03-20 00:39:00,49.4,49.4,30.11,West,272,0.0,0.0,100,0.00,,,0.00,0,Wunderground v.1.15,2013-03-20 07:39:00,
2013-03-20 00:45:00,49.5,49.5,30.11,West,272,0.0,0.0,100,0.00,,,0.00,0,Wunderground v.1.15,2013-03-20 07:45:00,
2013-03-20 00:50:00,49.5,49.5,30.11,West,272,0.0,0.0,100,0.00,,,0.00,0,Wunderground v.1.15,2013-03-20 07:50:00,
2013-03-20 00:59:00,49.5,49.5,30.12,West,272,0.0,0.0,100,0.00,,,0.00,0,Wunderground v.1.15,2013-03-20 07:59:00,
2013-03-20 01:05:00,49.6,49.6,30.12,West,272,0.0,0.0,100,0.00,,,0.00,0,Wunderground v.1.15,2013-03-20 08:05:00,
2013-03-20 01:10:00,49.6,49.6,30.13,West,272,0.0,0.0,100,0.00,,,0.00,0,Wunderground v.1.15,2013-03-20 08:10:00,
2013-03-20 01:19:00,49.9,49.9,30.12,West,272,0.0,0.0,100,0.00,,,0.00,0,Wunderground v.1.15,2013-03-20 08:19:00,
2013-03-20 01:29:00,50.1,50.1,30.12,West,272,0.0,0.0,100,0.00,,,0.00,0,Wunderground v.1.15,2013-03-20 08:29:00,
2013-03-20 01:34:00,50.2,50.2,30.12,West,272,0.0,0.0,100,0.00,,,0.00,0,Wunderground v.1.15,2013-03-20 08:34:00,
2013-03-20 01:39:00,50.2,50.2,30.12,West,272,0.0,0.0,100,0.00,,,0.00,0,Wunderground v.1.15,2013-03-20 08:39:00,
2013-03-20 01:49:00,50.2,50.2,30.11,West,272,0.0,0.0,100,0.00,,,0.00,0,Wunderground v.1.15,2013-03-20 08:49:00,
2013-03-20 01:55:00,50.3,50.3,30.11,West,273,1.0,1.0,100,0.00,,,0.00,0,Wunderground v.1.15,2013-03-20 08:55:00,
2013-03-20 02:00:00,50.3,50.3,30.11,West,273,0.0,0.0,100,0.00,,,0.00,0,Wunderground v.1.15,2013-03-20 09:00:00,
2013-03-20 02:09:00,50.4,50.4,30.11,West,273,0.0,0.0,100,0.00,,,0.00,0,Wunderground v.1.15,2013-03-20 09:09:00,
2013-03-20 02:20:00,50.3,50.3,30.11,West,273,2.0,2.0,100,0.00,,,0.00,0,Wunderground v.1.15,2013-03-20 09:20:00,
2013-03-20 02:29:00,50.4,50.4,30.12,West,273,0.0,0.0,100,0.00,,,0.00,0,Wunderground v.1.15,2013-03-20 09:29:00,
2013-03-20 02:39:00,50.5,50.5,30.12,West,273,0.0,0.0,100,0.00,,,0.00,0,Wunderground v.1.15,2013-03-20 09:39:00,
2013-03-20 02:44:00,50.4,50.4,30.12,West,273,0.0,0.0,100,0.00,,,0.00,0,Wunderground v.1.15,2013-03-20 09:44:00,
2013-03-20 02:50:00,50.5,50.5,30.11,West,273,1.0,1.0,100,0.00,,,0.00,0,Wunderground v.1.15,2013-03-20 09:50:00,
2013-03-20 02:59:00,50.6,50.6,30.11,South,172,2.0,2.0,100,0.00,,,0.00,0,Wunderground v.1.15,2013-03-20 09:59:00,
2013-03-20 03:05:00,50.6,50.6,30.10,SSW,210,1.0,2.0,100,0.00,,,0.00,0,Wunderground v.1.15,2013-03-20 10:05:00,
2013-03-20 03:14:00,50.3,50.3,30.10,SSW,203,2.0,3.0,100,0.00,,,0.00,0,Wunderground v.1.15,2013-03-20 10:14:00,
2013-03-20 03:19:00,50.2,50.2,30.10,SSW,201,3.0,3.0,100,0.00,,,0.00,0,Wunderground v.1.15,2013-03-20 10:19:00,
2013-03-20 03:24:00,50.1,50.1,30.11,SSW,207,2.0,3.0,100,0.00,,,0.00,0,Wunderground v.1.15,2013-03-20 10:24:00,
2013-03-20 03:29:00,50.1,50.1,30.11,SSW,207,0.0,0.0,100,0.00,,,0.00,0,Wunderground v.1.15,2013-03-20 10:29:00,
2013-03-20 03:34:00,50.1,50.1,30.11,SSW,207,0.0,0.0,100,0.00,,,0.00,0,Wunderground v.1.15,2013-03-20 10:34:00,
2013-03-20 03:39:00,50.2,50.2,30.11,SSW,207,0.0,0.0,100,0.00,,,0.00,0,Wunderground v.1.15,2013-03-20 10:39:00,
2013-03-20 03:49:00,50.5,50.5,30.10,South,187,0.0,0.0,100,0.00,,,0.00,0,Wunderground v.1.15,2013-03-20 10:49:00,
2013-03-20 03:59:00,50.6,50.6,30.10,South,187,0.0,0.0,100,0.00,,,0.00,0,Wunderground v.1.15,2013-03-20 10:59:00,
2013-03-20 04:10:00,50.7,50.7,30.10,South,187,0.0,0.0,100,0.00,,,0.00,0,Wunderground v.1.15,2013-03-20 11:10:00,
2013-03-20 04:19:00,50.9,50.9,30.09,South,187,0.0,0.0,100,0.00,,,0.00,0,Wunderground v.1.15,2013-03-20 11:19:00,
2013-03-20 04:29:00,51.2,51.2,30.09,SSW,209,1.0,1.0,100,0.00,,,0.00,0,Wunderground v.1.15,2013-03-20 11:29:00,
2013-03-20 04:39:00,51.2,51.2,30.09,SW,236,0.0,0.0,100,0.00,,,0.00,0,Wunderground v.1.15,2013-03-20 11:39:00,
2013-03-20 04:44:00,51.1,51.1,30.09,SW,236,0.0,0.0,100,0.00,,,0.00,0,Wunderground v.1.15,2013-03-20 11:44:00,
2013-03-20 04:49:00,51.1,51.1,30.09,SW,236,0.0,0.0,100,0.00,,,0.00,0,Wunderground v.1.15,2013-03-20 11:49:00,
2013-03-20 04:59:00,51.2,51.2,30.09,WSW,247,1.0,1.0,100,0.00,,,0.00,0,Wunderground v.1.15,2013-03-20 11:59:00,
2013-03-20 05:04:00,51.2,51.2,30.08,West,268,1.0,1.0,100,0.00,,,0.00,0,Wunderground v.1.15,2013-03-20 12:04:00,
2013-03-20 05:09:00,51.3,51.3,30.08,West,268,1.0,1.0,100,0.00,,,0.00,0,Wunderground v.1.15,2013-03-20 12:09:00,
2013-03-20 05:19:00,51.4,51.4,30.08,NNW,334,3.0,3.0,100,0.00,,,0.00,0,Wunderground v.1.15,2013-03-20 12:19:00,
2013-03-20 05:29:00,51.1,51.1,30.08,North,0,1.0,1.0,100,0.00,,,0.00,0,Wunderground v.1.15,2013-03-20 12:29:00,
2013-03-20 05:34:00,51.0,51.0,30.09,North,0,0.0,1.0,100,0.00,,,0.00,0,Wunderground v.1.15,2013-03-20 12:34:00,
2013-03-20 05:39:00,50.9,50.9,30.09,North,0,0.0,0.0,100,0.00,,,0.00,0,Wunderground v.1.15,2013-03-20 12:39:00,
2013-03-20 05:49:00,50.9,50.9,30.08,North,0,0.0,0.0,100,0.00,,,0.00,0,Wunderground v.1.15,2013-03-20 12:49:00,
2013-03-20 05:54:00,51.0,51.0,30.09,North,0,0.0,0.0,100,0.00,,,0.00,0,Wunderground v.1.15,2013-03-20 12:54:00,
2013-03-20 06:04:00,51.1,51.1,30.08,North,0,0.0,0.0,100,0.00,,,0.00,0,Wunderground v.1.15,2013-03-20 13:04:00,
2013-03-20 06:09:00,51.1,51.1,30.09,North,0,0.0,0.0,100,0.00,,,0.00,0,Wunderground v.1.15,2013-03-20 13:09:00,
2013-03-20 06:14:00,51.0,51.0,30.08,North,0,0.0,0.0,100,0.00,,,0.00,0,Wunderground v.1.15,2013-03-20 13:14:00,
2013-03-20 06:19:00,51.1,51.1,30.09,North,0,0.0,0.0,100,0.00,,,0.00,0,Wunderground v.1.15,2013-03-20 13:19:00,
2013-03-20 06:29:00,51.0,51.0,30.09,North,0,0.0,0.0,100,0.00,,,0.00,0,Wunderground v.1.15,2013-03-20 13:29:00,
2013-03-20 06:35:00,50.9,50.9,30.09,North,0,0.0,0.0,100,0.00,,,0.00,0,Wunderground v.1.15,2013-03-20 13:35:00,
2013-03-20 06:40:00,50.8,50.8,30.09,North,0,0.0,0.0,100,0.00,,,0.00,0,Wunderground v.1.15,2013-03-20 13:40:00,
2013-03-20 06:49:00,50.9,50.9,30.09,North,0,0.0,0.0,100,0.00,,,0.00,0,Wunderground v.1.15,2013-03-20 13:49:00,
2013-03-20 06:54:00,50.8,50.8,30.09,North,0,0.0,0.0,100,0.00,,,0.00,0,Wunderground v.1.15,2013-03-20 13:54:00,
2013-03-20 06:59:00,50.8,50.8,30.09,North,0,0.0,0.0,100,0.00,,,0.00,0,Wunderground v.1.15,2013-03-20 13:59:00,
2013-03-20 07:09:00,51.0,51.0,30.09,North,0,1.0,1.0,100,0.00,,,0.00,0,Wunderground v.1.15,2013-03-20 14:09:00,
2013-03-20 07:15:00,51.1,51.1,30.09,North,0,0.0,1.0,100,0.00,,,0.00,0,Wunderground v.1.15,2013-03-20 14:15:00,
2013-03-20 07:20:00,51.1,51.1,30.09,North,0,0.0,0.0,100,0.00,,,0.00,0,Wunderground v.1.15,2013-03-20 14:20:00,
2013-03-20 07:29:00,51.0,51.0,30.09,North,0,0.0,0.0,100,0.00,,,0.00,0,Wunderground v.1.15,2013-03-20 14:29:00,
2013-03-20 07:39:00,51.0,51.0,30.10,North,0,0.0,0.0,100,0.00,,,0.00,0,Wunderground v.1.15,2013-03-20 14:39:00,
2013-03-20 07:44:00,51.0,51.0,30.10,North,0,0.0,0.0,100,0.00,,,0.00,0,Wunderground v.1.15,2013-03-20 14:44:00,
2013-03-20 07:49:00,51.2,51.2,30.10,North,0,0.0,0.0,100,0.00,,,0.00,0,Wunderground v.1.15,2013-03-20 14:49:00,
2013-03-20 07:59:00,51.3,51.3,30.10,North,0,1.0,1.0,100,0.00,,,0.00,0,Wunderground v.1.15,2013-03-20 14:59:00,
2013-03-20 08:04:00,51.3,51.3,30.10,North,0,0.0,1.0,100,0.00,,,0.00,0,Wunderground v.1.15,2013-03-20 15:04:00,
2013-03-20 08:09:00,51.4,51.4,30.11,SW,226,1.0,1.0,100,0.00,,,0.00,0,Wunderground v.1.15,2013-03-20 15:09:00,
2013-03-20 08:19:00,51.5,51.5,30.11,SSW,206,0.0,0.0,100,0.00,,,0.00,0,Wunderground v.1.15,2013-03-20 15:19:00,
2013-03-20 08:25:00,51.7,51.7,30.11,SSW,206,0.0,0.0,100,0.00,,,0.00,0,Wunderground v.1.15,2013-03-20 15:25:00,
2013-03-20 08:30:00,51.9,51.9,30.11,SSW,199,0.0,0.0,100,0.00,,,0.00,0,Wunderground v.1.15,2013-03-20 15:30:00,
2013-03-20 08:39:00,52.1,52.1,30.10,SSW,193,0.0,0.0,100,0.00,,,0.00,0,Wunderground v.1.15,2013-03-20 15:39:00,
2013-03-20 08:49:00,52.2,52.2,30.10,SW,234,1.0,1.0,100,0.00,,,0.00,0,Wunderground v.1.15,2013-03-20 15:49:00,
2013-03-20 08:54:00,52.4,52.4,30.11,WNW,289,2.0,2.0,100,0.00,,,0.00,0,Wunderground v.1.15,2013-03-20 15:54:00,
2013-03-20 08:59:00,52.6,52.6,30.11,WNW,289,0.0,0.0,100,0.00,,,0.00,0,Wunderground v.1.15,2013-03-20 15:59:00,
2013-03-20 09:09:00,52.7,52.7,30.11,WNW,289,1.0,1.0,100,0.00,,,0.00,0,Wunderground v.1.15,2013-03-20 16:09:00,
2013-03-20 09:19:00,53.0,53.0,30.12,NNW,333,1.0,1.0,100,0.00,,,0.00,0,Wunderground v.1.15,2013-03-20 16:19:00,
2013-03-20 09:24:00,53.1,53.1,30.11,NW,310,1.0,1.0,100,0.00,,,0.00,0,Wunderground v.1.15,2013-03-20 16:24:00,
2013-03-20 09:29:00,53.4,53.4,30.12,NW,310,1.0,1.0,100,0.00,,,0.00,0,Wunderground v.1.15,2013-03-20 16:29:00,
2013-03-20 09:39:00,53.6,53.6,30.12,NW,310,0.0,0.0,100,0.00,,,0.00,0,Wunderground v.1.15,2013-03-20 16:39:00,
2013-03-20 09:44:00,53.7,53.7,30.12,NNW,329,2.0,2.0,100,0.00,,,0.00,0,Wunderground v.1.15,2013-03-20 16:44:00,
2013-03-20 09:49:00,53.8,53.8,30.12,NNW,329,0.0,0.0,100,0.00,,,0.00,0,Wunderground v.1.15,2013-03-20 16:49:00,
2013-03-20 09:55:00,54.0,54.0,30.12,NNW,329,0.0,0.0,100,0.00,,,0.00,0,Wunderground v.1.15,2013-03-20 16:55:00,
2013-03-20 10:05:00,54.4,54.4,30.11,SSW,204,1.0,1.0,100,0.00,,,0.00,0,Wunderground v.1.15,2013-03-20 17:05:00,
2013-03-20 10:15:00,55.1,55.1,30.11,SE,146,2.0,2.0,100,0.00,,,0.00,0,Wunderground v.1.15,2013-03-20 17:15:00,
2013-03-20 10:24:00,55.6,55.6,30.11,SSW,212,0.0,1.0,100,0.00,,,0.00,0,Wunderground v.1.15,2013-03-20 17:24:00,
2013-03-20 10:29:00,56.0,56.0,30.10,SSE,168,3.0,3.0,100,0.00,,,0.00,0,Wunderground v.1.15,2013-03-20 17:29:00,
2013-03-20 10:39:00,57.6,57.6,30.10,South,188,0.0,0.0,100,0.00,,,0.00,0,Wunderground v.1.15,2013-03-20 17:39:00,
2013-03-20 10:49:00,59.3,57.9,30.10,South,188,0.0,0.0,95,0.00,,,0.00,0,Wunderground v.1.15,2013-03-20 17:49:00,
2013-03-20 10:59:00,60.8,57.8,30.10,West,281,3.0,3.0,90,0.00,,,0.00,0,Wunderground v.1.15,2013-03-20 17:59:00,
2013-03-20 11:04:00,61.2,56.0,30.10,South,181,6.0,6.0,83,0.00,,,0.00,0,Wunderground v.1.15,2013-03-20 18:04:00,
2013-03-20 11:10:00,62.0,55.8,30.10,SSW,201,5.0,5.0,80,0.00,,,0.00,0,Wunderground v.1.15,2013-03-20 18:10:00,
2013-03-20 11:20:00,62.3,54.3,30.10,SSW,200,1.0,1.0,75,0.00,,,0.00,0,Wunderground v.1.15,2013-03-20 18:20:00,
2013-03-20 11:25:00,62.7,54.7,30.11,SSW,206,1.0,1.0,75,0.00,,,0.00,0,Wunderground v.1.15,2013-03-20 18:25:00,
2013-03-20 11:35:00,63.3,55.6,30.11,WNW,297,2.0,2.0,76,0.00,,,0.00,0,Wunderground v.1.15,2013-03-20 18:35:00,
2013-03-20 11:44:00,63.6,53.2,30.10,South,185,2.0,2.0,69,0.00,,,0.00,0,Wunderground v.1.15,2013-03-20 18:44:00,
2013-03-20 11:49:00,64.0,53.6,30.10,SSW,199,0.0,0.0,69,0.00,,,0.00,0,Wunderground v.1.15,2013-03-20 18:49:00,
2013-03-20 11:59:00,64.1,52.9,30.10,SW,233,0.0,0.0,67,0.00,,,0.00,0,Wunderground v.1.15,2013-03-20 18:59:00,
2013-03-20 12:04:00,64.0,52.4,30.11,SW,214,2.0,2.0,66,0.00,,,0.00,0,Wunderground v.1.15,2013-03-20 19:04:00,
2013-03-20 12:09:00,63.9,52.3,30.10,SSW,204,5.0,5.0,66,0.00,,,0.00,0,Wunderground v.1.15,2013-03-20 19:09:00,
2013-03-20 12:19:00,64.1,52.5,30.10,SSW,205,3.0,3.0,66,0.00,,,0.00,0,Wunderground v.1.15,2013-03-20 19:19:00,
2013-03-20 12:24:00,64.0,52.8,30.11,WSW,237,2.0,3.0,67,0.00,,,0.00,0,Wunderground v.1.15,2013-03-20 19:24:00,
2013-03-20 12:30:00,64.0,52.8,30.11,SW,233,0.0,0.0,67,0.00,,,0.00,0,Wunderground v.1.15,2013-03-20 19:30:00,
2013-03-20 12:35:00,64.0,52.8,30.11,SW,223,1.0,1.0,67,0.00,,,0.00,0,Wunderground v.1.15,2013-03-20 19:35:00,
2013-03-20 12:40:00,63.7,52.5,30.11,SSW,206,1.0,1.0,67,0.00,,,0.00,0,Wunderground v.1.15,2013-03-20 19:40:00,
2013-03-20 12:50:00,64.0,52.8,30.11,SW,233,2.0,2.0,67,0.00,,,0.00,0,Wunderground v.1.15,2013-03-20 19:50:00,
2013-03-20 13:00:00,64.5,53.3,30.11,SW,220,1.0,1.0,67,0.00,,,0.00,0,Wunderground v.1.15,2013-03-20 20:00:00,
2013-03-20 13:10:00,64.8,54.0,30.11,SSE,165,0.0,0.0,68,0.00,,,0.00,0,Wunderground v.1.15,2013-03-20 20:10:00,
2013-03-20 13:15:00,64.9,54.1,30.10,SW,221,3.0,3.0,68,0.00,,,0.00,0,Wunderground v.1.15,2013-03-20 20:15:00,
2013-03-20 13:25:00,64.7,54.3,30.11,SW,218,3.0,3.0,69,0.00,,,0.00,0,Wunderground v.1.15,2013-03-20 20:25:00,
2013-03-20 13:35:00,64.9,54.1,30.11,SSW,213,3.0,4.0,68,0.00,,,0.00,0,Wunderground v.1.15,2013-03-20 20:35:00,
2013-03-20 13:44:00,64.6,54.2,30.11,SW,236,0.0,1.0,69,0.00,,,0.00,0,Wunderground v.1.15,2013-03-20 20:44:00,
2013-03-20 13:49:00,65.0,55.0,30.10,West,267,2.0,2.0,70,0.00,,,0.00,0,Wunderground v.1.15,2013-03-20 20:49:00,
2013-03-20 13:54:00,64.9,54.5,30.11,WSW,254,2.0,2.0,69,0.00,,,0.00,0,Wunderground v.1.15,2013-03-20 20:54:00,
2013-03-20 13:59:00,64.5,54.5,30.11,SW,224,2.0,2.0,70,0.00,,,0.00,0,Wunderground v.1.15,2013-03-20 20:59:00,
2013-03-20 14:04:00,64.3,54.7,30.11,SE,145,0.0,2.0,71,0.00,,,0.00,0,Wunderground v.1.15,2013-03-20 21:04:00,
2013-03-20 14:09:00,64.3,54.7,30.11,SW,224,1.0,1.0,71,0.00,,,0.00,0,Wunderground v.1.15,2013-03-20 21:09:00,
2013-03-20 14:14:00,64.3,54.7,30.11,West,271,0.0,1.0,71,0.00,,,0.00,0,Wunderground v.1.15,2013-03-20 21:14:00,
2013-03-20 14:20:00,64.3,54.7,30.10,SSW,207,0.0,0.0,71,0.00,,,0.00,0,Wunderground v.1.15,2013-03-20 21:20:00,
2013-03-20 14:30:00,64.1,54.9,30.11,WSW,252,0.0,0.0,72,0.00,,,0.00,0,Wunderground v.1.15,2013-03-20 21:30:00,
2013-03-20 14:35:00,64.2,55.4,30.10,South,186,0.0,0.0,73,0.00,,,0.00,0,Wunderground v.1.15,2013-03-20 21:35:00,
2013-03-20 14:44:00,64.3,55.8,30.10,WNW,288,6.0,6.0,74,0.00,,,0.00,0,Wunderground v.1.15,2013-03-20 21:44:00,
2013-03-20 14:49:00,63.5,55.4,30.10,NNW,331,6.0,6.0,75,0.00,,,0.00,0,Wunderground v.1.15,2013-03-20 21:49:00,
2013-03-20 14:59:00,62.8,55.5,30.10,West,280,0.0,0.0,77,0.00,,,0.00,0,Wunderground v.1.15,2013-03-20 21:59:00,
2013-03-20 15:04:00,62.8,55.8,30.10,NW,319,3.0,3.0,78,0.00,,,0.00,0,Wunderground v.1.15,2013-03-20 22:04:00,
2013-03-20 15:09:00,63.0,56.0,30.11,NW,319,3.0,3.0,78,0.00,,,0.00,0,Wunderground v.1.15,2013-03-20 22:09:00,
2013-03-20 15:14:00,62.8,55.8,30.10,NW,307,8.0,8.0,78,0.00,,,0.00,0,Wunderground v.1.15,2013-03-20 22:14:00,
2013-03-20 15:19:00,62.4,55.4,30.11,WNW,286,7.0,7.0,78,0.00,,,0.00,0,Wunderground v.1.15,2013-03-20 22:19:00,
2013-03-20 15:29:00,62.1,55.9,30.11,WNW,291,6.0,6.0,80,0.00,,,0.00,0,Wunderground v.1.15,2013-03-20 22:29:00,
2013-03-20 15:34:00,61.7,55.8,30.11,WNW,283,5.0,6.0,81,0.00,,,0.00,0,Wunderground v.1.15,2013-03-20 22:34:00,
2013-03-20 15:40:00,61.2,55.7,30.11,WNW,284,5.0,5.0,82,0.00,,,0.00,0,Wunderground v.1.15,2013-03-20 22:40:00,
2013-03-20 15:49:00,60.6,55.7,30.11,WNW,298,3.0,3.0,84,0.00,,,0.00,0,Wunderground v.1.15,2013-03-20 22:49:00,
2013-03-20 15:54:00,60.2,55.7,30.11,NNW,329,5.0,5.0,85,0.00,,,0.00,0,Wunderground v.1.15,2013-03-20 22:54:00,
2013-03-20 16:00:00,59.9,55.4,30.11,NW,316,4.0,4.0,85,0.00,,,0.00,0,Wunderground v.1.15,2013-03-20 23:00:00,
2013-03-20 16:05:00,59.9,56.0,30.11,NW,307,2.0,4.0,87,0.00,,,0.00,0,Wunderground v.1.15,2013-03-20 23:05:00,
2013-03-20 16:14:00,59.6,56.0,30.11,WNW,294,0.0,2.0,88,0.00,,,0.00,0,Wunderground v.1.15,2013-03-20 23:14:00,
2013-03-20 16:19:00,59.6,56.0,30.11,WNW,298,1.0,1.0,88,0.00,,,0.00,0,Wunderground v.1.15,2013-03-20 23:19:00,
2013-03-20 16:29:00,59.7,56.1,30.11,WNW,297,4.0,4.0,88,0.00,,,0.00,0,Wunderground v.1.15,2013-03-20 23:29:00,
2013-03-20 16:34:00,59.7,56.1,30.11,WNW,300,2.0,4.0,88,0.00,,,0.00,0,Wunderground v.1.15,2013-03-20 23:34:00,
2013-03-20 16:39:00,59.6,56.4,30.11,NW,306,4.0,4.0,89,0.00,,,0.00,0,Wunderground v.1.15,2013-03-20 23:39:00,
2013-03-20 16:49:00,59.3,56.4,30.12,WNW,289,0.0,0.0,90,0.00,,,0.00,0,Wunderground v.1.15,2013-03-20 23:49:00,
2013-03-20 16:59:00,59.1,56.2,30.11,North,359,2.0,2.0,90,0.00,,,0.00,0,Wunderground v.1.15,2013-03-20 23:59:00,
2013-03-20 17:10:00,59.1,56.5,30.10,WNW,303,1.0,1.0,91,0.00,,,0.00,0,Wunderground v.1.15,2013-03-21 00:10:00,
2013-03-20 17:14:00,59.2,56.6,30.10,WNW,303,0.0,1.0,91,0.00,,,0.00,0,Wunderground v.1.15,2013-03-21 00:14:00,
2013-03-20 17:20:00,59.3,56.7,30.10,WNW,303,1.0,1.0,91,0.00,,,0.00,0,Wunderground v.1.15,2013-03-21 00:20:00,
2013-03-20 17:25:00,59.2,56.3,30.10,WSW,257,1.0,1.0,90,0.00,,,0.00,0,Wunderground v.1.15,2013-03-21 00:25:00,
2013-03-20 17:35:00,59.2,56.3,30.10,WNW,296,0.0,0.0,90,0.00,,,0.00,0,Wunderground v.1.15,2013-03-21 00:35:00,
2013-03-20 17:40:00,59.3,56.7,30.10,SSW,202,2.0,2.0,91,0.00,,,0.00,0,Wunderground v.1.15,2013-03-21 00:40:00,
2013-03-20 17:45:00,59.3,56.4,30.10,SSW,212,0.0,2.0,90,0.00,,,0.00,0,Wunderground v.1.15,2013-03-21 00:45:00,
2013-03-20 17:54:00,59.4,56.5,30.10,NW,308,0.0,1.0,90,0.00,,,0.00,0,Wunderground v.1.15,2013-03-21 00:54:00,
2013-03-20 17:59:00,59.1,55.9,30.10,WNW,301,0.0,0.0,89,0.00,,,0.00,0,Wunderground v.1.15,2013-03-21 00:59:00,
2013-03-20 18:04:00,58.9,55.7,30.10,NNW,343,6.0,6.0,89,0.00,,,0.00,0,Wunderground v.1.15,2013-03-21 01:04:00,
2013-03-20 18:09:00,58.5,54.6,30.10,WNW,298,1.0,1.0,87,0.00,,,0.00,0,Wunderground v.1.15,2013-03-21 01:09:00,
2013-03-20 18:14:00,58.3,54.4,30.10,NW,306,4.0,4.0,87,0.00,,,0.00,0,Wunderground v.1.15,2013-03-21 01:14:00,
2013-03-20 18:19:00,58.3,52.5,30.10,NW,323,2.0,2.0,81,0.00,,,0.00,0,Wunderground v.1.15,2013-03-21 01:19:00,
2013-03-20 18:24:00,58.2,52.7,30.10,NW,308,2.0,2.0,82,0.00,,,0.00,0,Wunderground v.1.15,2013-03-21 01:24:00,
2013-03-20 18:30:00,58.2,52.7,30.10,NW,311,1.0,1.0,82,0.00,,,0.00,0,Wunderground v.1.15,2013-03-21 01:30:00,
2013-03-20 18:35:00,58.2,52.1,30.10,NW,318,2.0,2.0,80,0.00,,,0.00,0,Wunderground v.1.15,2013-03-21 01:35:00,
2013-03-20 18:44:00,58.1,51.6,30.11,NW,309,1.0,4.0,79,0.00,,,0.00,0,Wunderground v.1.15,2013-03-21 01:44:00,
2013-03-20 18:49:00,58.0,51.5,30.11,WNW,297,0.0,0.0,79,0.00,,,0.00,0,Wunderground v.1.15,2013-03-21 01:49:00,
2013-03-20 19:05:00,57.6,51.5,30.11,WNW,295,2.0,2.0,80,0.00,,,0.00,0,Wunderground v.1.15,2013-03-21 02:05:00,
2013-03-20 19:10:00,57.4,50.2,30.11,NW,307,1.0,1.0,77,0.00,,,0.00,0,Wunderground v.1.15,2013-03-21 02:10:00,
2013-03-20 19:15:00,57.2,50.1,30.12,NNW,341,4.0,4.0,77,0.00,,,0.00,0,Wunderground v.1.15,2013-03-21 02:15:00,
2013-03-20 19:20:00,57.0,49.9,30.11,NNW,336,2.0,2.0,77,0.00,,,0.00,0,Wunderground v.1.15,2013-03-21 02:20:00,
2013-03-20 19:25:00,56.7,49.9,30.11,WNW,303,6.0,6.0,78,0.00,,,0.00,0,Wunderground v.1.15,2013-03-21 02:25:00,
2013-03-20 19:35:00,56.4,48.6,30.12,WNW,284,2.0,5.0,75,0.00,,,0.00,0,Wunderground v.1.15,2013-03-21 02:35:00,
2013-03-20 19:40:00,56.3,48.5,30.12,NW,320,3.0,3.0,75,0.00,,,0.00,0,Wunderground v.1.15,2013-03-21 02:40:00,
2013-03-20 19:50:00,55.8,48.3,30.12,WNW,293,5.0,5.0,76,0.00,,,0.00,0,Wunderground v.1.15,2013-03-21 02:50:00,
2013-03-20 19:55:00,55.5,48.1,30.12,WNW,294,3.0,5.0,76,0.00,,,0.00,0,Wunderground v.1.15,2013-03-21 02:55:00,
2013-03-20 20:00:00,55.3,48.6,30.12,NW,309,1.0,1.0,78,0.00,,,0.00,0,Wunderground v.1.15,2013-03-21 03:00:00,
2013-03-20 20:05:00,55.2,49.5,30.12,NW,310,6.0,6.0,81,0.00,,,0.00,0,Wunderground v.1.15,2013-03-21 03:05:00,
2013-03-20 20:10:00,55.0,49.6,30.13,NW,306,2.0,2.0,82,0.00,,,0.00,0,Wunderground v.1.15,2013-03-21 03:10:00,
2013-03-20 20:15:00,54.9,49.2,30.13,NW,306,4.0,4.0,81,0.00,,,0.00,0,Wunderground v.1.15,2013-03-21 03:15:00,
2013-03-20 20:20:00,54.7,48.0,30.13,WNW,289,0.0,0.0,78,0.00,,,0.00,0,Wunderground v.1.15,2013-03-21 03:20:00,
2013-03-20 20:25:00,54.6,48.2,30.13,WNW,301,0.0,0.0,79,0.00,,,0.00,0,Wunderground v.1.15,2013-03-21 03:25:00,
2013-03-20 20:35:00,54.5,48.5,30.13,WNW,294,1.0,3.0,80,0.00,,,0.00,0,Wunderground v.1.15,2013-03-21 03:35:00,
2013-03-20 20:40:00,54.4,48.0,30.14,WNW,291,3.0,3.0,79,0.00,,,0.00,0,Wunderground v.1.15,2013-03-21 03:40:00,
2013-03-20 20:50:00,54.3,47.9,30.14,WNW,302,3.0,3.0,79,0.00,,,0.00,0,Wunderground v.1.15,2013-03-21 03:50:00,
2013-03-20 20:55:00,54.2,48.2,30.14,NW,306,0.0,3.0,80,0.00,,,0.00,0,Wunderground v.1.15,2013-03-21 03:55:00,
2013-03-20 21:00:00,54.2,48.2,30.14,NW,306,0.0,0.0,80,0.00,,,0.00,0,Wunderground v.1.15,2013-03-21 04:00:00,
2013-03-20 21:05:00,54.2,48.2,30.14,NW,307,0.0,0.0,80,0.00,,,0.00,0,Wunderground v.1.15,2013-03-21 04:05:00,
2013-03-20 21:10:00,54.2,48.2,30.14,NW,306,0.0,0.0,80,0.00,,,0.00,0,Wunderground v.1.15,2013-03-21 04:10:00,
2013-03-20 21:15:00,54.1,48.1,30.14,WNW,292,0.0,0.0,80,0.00,,,0.00,0,Wunderground v.1.15,2013-03-21 04:15:00,
2013-03-20 21:25:00,53.9,48.5,30.15,WNW,303,1.0,2.0,82,0.00,,,0.00,0,Wunderground v.1.15,2013-03-21 04:25:00,
2013-03-20 21:30:00,53.8,48.8,30.15,WNW,291,1.0,1.0,83,0.00,,,0.00,0,Wunderground v.1.15,2013-03-21 04:30:00,
2013-03-20 21:35:00,53.8,48.8,30.15,WNW,300,4.0,4.0,83,0.00,,,0.00,0,Wunderground v.1.15,2013-03-21 04:35:00,
2013-03-20 21:40:00,53.7,48.3,30.15,WNW,296,1.0,1.0,82,0.00,,,0.00,0,Wunderground v.1.15,2013-03-21 04:40:00,
2013-03-20 21:45:00,53.7,48.3,30.15,WNW,300,2.0,2.0,82,0.00,,,0.00,0,Wunderground v.1.15,2013-03-21 04:45:00,
2013-03-20 21:50:00,53.7,48.3,30.14,WNW,297,0.0,0.0,82,0.00,,,0.00,0,Wunderground v.1.15,2013-03-21 04:50:00,
2013-03-20 21:55:00,53.7,48.7,30.15,WNW,297,0.0,0.0,83,0.00,,,0.00,0,Wunderground v.1.15,2013-03-21 04:55:00,
2013-03-20 22:00:00,53.7,48.3,30.15,WNW,300,0.0,0.0,82,0.00,,,0.00,0,Wunderground v.1.15,2013-03-21 05:00:00,
2013-03-20 22:10:00,53.7,48.3,30.15,WNW,302,0.0,0.0,82,0.00,,,0.00,0,Wunderground v.1.15,2013-03-21 05:10:00,
2013-03-20 22:15:00,53.8,48.8,30.15,West,260,0.0,0.0,83,0.00,,,0.00,0,Wunderground v.1.15,2013-03-21 05:15:00,
2013-03-20 22:25:00,53.8,48.8,30.15,SSW,192,2.0,2.0,83,0.00,,,0.00,0,Wunderground v.1.15,2013-03-21 05:25:00,
2013-03-20 22:35:00,53.7,48.3,30.15,South,191,3.0,3.0,82,0.00,,,0.00,0,Wunderground v.1.15,2013-03-21 05:35:00,
2013-03-20 22:40:00,53.6,48.2,30.15,SW,221,0.0,0.0,82,0.00,,,0.00,0,Wunderground v.1.15,2013-03-21 05:40:00,
2013-03-20 22:45:00,53.6,48.6,30.15,SW,221,0.0,0.0,83,0.00,,,0.00,0,Wunderground v.1.15,2013-03-21 05:45:00,
2013-03-20 22:50:00,53.5,48.5,30.15,SW,216,0.0,0.0,83,0.00,,,0.00,0,Wunderground v.1.15,2013-03-21 05:50:00,
2013-03-20 23:00:00,53.5,48.1,30.15,WSW,248,1.0,1.0,82,0.00,,,0.00,0,Wunderground v.1.15,2013-03-21 06:00:00,
2013-03-20 23:05:00,53.4,48.0,30.15,WSW,247,0.0,1.0,82,0.00,,,0.00,0,Wunderground v.1.15,2013-03-21 06:05:00,
2013-03-20 23:10:00,53.4,47.7,30.15,WSW,247,0.0,0.0,81,0.00,,,0.00,0,Wunderground v.1.15,2013-03-21 06:10:00,
2013-03-20 23:15:00,53.4,47.7,30.16,WSW,247,0.0,0.0,81,0.00,,,0.00,0,Wunderground v.1.15,2013-03-21 06:15:00,
2013-03-20 23:25:00,53.2,47.5,30.15,NW,305,1.0,1.0,81,0.00,,,0.00,0,Wunderground v.1.15,2013-03-21 06:25:00,
2013-03-20 23:30:00,53.1,47.4,30.15,WNW,300,0.0,0.0,81,0.00,,,0.00,0,Wunderground v.1.15,2013-03-21 06:30:00,
2013-03-20 23:40:00,53.1,47.1,30.15,WNW,300,0.0,0.0,80,0.00,,,0.00,0,Wunderground v.1.15,2013-03-21 06:40:00,
2013-03-20 23:45:00,53.2,47.2,30.15,WNW,300,1.0,1.0,80,0.00,,,0.00,0,Wunderground v.1.15,2013-03-21 06:45:00,
2013-03-20 23:50:00,53.2,46.9,30.15,NW,307,0.0,0.0,79,0.00,,,0.00,0,Wunderground v.1.15,2013-03-21 06:50:00,